User: anonymous   Login
Location: Unspecified
(0.0000°N, 0.0000°E)
Time: 05:21:14
(UTC+00:00)
Language:

GONETS M 06 - Orbit

View from above orbital plane
View from above orbital plane
View from above satellite
View from above satellite

Ground track
Ground track

The orbit data is extracted from the following two-line orbital elements,

1 39250U 13048B   18146.49915569 +.00000019 +00000-0 +66384-4 0  9994
2 39250 082.4883 018.9126 0017581 182.6336 177.4654 12.42924971213362
Epoch (UTC): 26 May 2018 11:58:47
Eccentricity: 0.0017581
inclination: 82.4883°
perigee height: 1480 km
apogee height: 1508 km
right ascension of ascending node: 18.9126°
argument of perigee: 182.6336°
revolutions per day: 12.42924971
mean anomaly at epoch: 177.4654°
orbit number at epoch: 21336

The dashed part of the orbit path shows where the satellite is in the earth's shadow,  

DLR